Weather Roundup
Issued by NWS Chicago, IL

Home | Current Version | Previous Version | Text Only | Print | Product List | Glossary On
Versions: 1 2 3 4 5 6 7 8 9 10 11 12 13 14 15 16 17 18 19 20 21 22 23 24 25 26 27 28 29 30 31 32 33 34 35 36 37 38 39 40 41 42 43 44 45 46 47 48 49 50
000
NZUS59 KLOT 221310
HRRLOT

CHICAGO AREA WEATHER ROUNDUP
NATIONAL WEATHER SERVICE CHICAGO/ROMEOVILLE IL
700 AM CST MON DEC 22 2014

NOTE: "FAIR" INDICATES FEW OR NO CLOUDS BELOW 12,000 FEET WITH NO
SIGNIFICANT WEATHER AND/OR OBSTRUCTIONS TO VISIBILITY.

* THESE STATIONS ARE NOT UNDER NWS QUALITY CONTROL. THEY ALSO MAY NOT
  REPORT WEATHER SUCH AS PRECIPITATION OR FOG.

ILZ005-006-012>014-019>023-221400-
NORTHEAST ILLINOIS

CITY           SKY/WX    TMP DP  RH WIND       PRES   REMARKS
OHARE          CLOUDY    31  27  85 SE8       29.93F WCI  23
MIDWAY         CLOUDY    34  28  79 SE7       29.94F WCI  28
AURORA         CLOUDY    33  27  78 E9        29.91F HAZE    WCI  25
LANSING*       CLOUDY    32  28  84 SE9       29.95S WCI  24
JOLIET*        CLOUDY    32  28  86 SE7       29.93S FOG     WCI  25
WAUKEGAN       CLOUDY    33  29  85 SE10      29.93F FOG     WCI  25
DUPAGE AIRPORT CLOUDY    32  27  81 SE8       29.91F WCI  25
WHEELING       CLOUDY    32  27  81 SE3       29.95F
KANKAKEE*      CLOUDY    32  29  89 E9        29.94F WCI  24
MORRIS*        CLOUDY    33  31  92 SE10      29.91S WCI  25
LEWIS AIRPORT* CLOUDY    32  28  86 SE8       29.92F WCI  25
NORTHERLY IS     N/A     32  28  86 SE10        N/A  WCI  24
$$

WIZ051-052-058>065-066-070>072-221400-
SOUTHEAST WISCONSIN

CITY           SKY/WX    TMP DP  RH WIND       PRES   REMARKS
MILWAUKEE      CLOUDY    35  29  78 S13       29.95S WCI  26
KENOSHA*       CLOUDY    34  30  85 SE8       29.94F FOG     WCI  27
RACINE*        CLOUDY    35  30  82 SE10      29.96F WCI  27
BURLINGTON     CLOUDY    31  27  85 SE8       29.92F WCI  23
WAUKESHA       CLOUDY    30  27  86 SE12      29.93S FOG     WCI  21
WEST BEND      LGT SNOW  32  28  86 SE8       29.93S WCI  25
$$

INZ001>003-010>013-019-020-221400-
NORTHWEST INDIANA

CITY           SKY/WX    TMP DP  RH WIND       PRES   REMARKS
GARY*          CLOUDY    32  25  74 SE10      29.95F WCI  24
MICHIGAN CITY* NOT AVBL
RENSSELAER*    NOT AVBL
VALPARAISO     CLOUDY    29  26  89 E6        29.97F WCI  23
$$

LMZ740>746-221400-
SOUTHERN LAKE MICHIGAN

STATION/POSITION TIME  SKY/WX   TEMP WIND        PRES    VSBY
                                AIR  DIR/SP/G
                 (UTC)          (F)  (DEG/KT/KT) (MB)    (MI)
HARRISON CRIB    1300            33  150/ 14/ 17   N/A
BURNHAM HARBOR   1300            33  130/  7/ 11   N/A
CALUMET HARBOR   1300            32  150/  6/  9 1013.0F
BURNS HARBOR     NOT AVBL
MICHIGAN CITY    NOT AVBL
$$

ABBREVIATIONS USED IN REMARKS
   TC - TEMPERATURE IN CELSIUS
  WCI - WIND CHILL INDEX
   HX - HEAT INDEX
  VSB - VISIBILITY
$$


USA.gov is the U.S. government's official web portal to all federal, state and local government web resources and services.